Simultaneous Nadir Overpasses (SNOs) Predictions

Prediction of SNOs between GOES-16 and METOP-B Satellite Orbit:

Table of predicted SNOs for the next 14.0 days since TLE Epoch: 11/2/2019
Index Date Time (GOES-16) GOES-16 Lat,Lon METOP-B Lat,Lon Distance(km) Time Diff (sec)
1 11/02/2019 14:16:19 0.01, -75.20 -0.85, -71.46 425.98 80
2 11/04/2019 02:35:19 -0.00, -75.20 -0.20, -76.05 97.49 80
3 11/05/2019 02:12:01 -0.00, -75.20 0.93, -71.06 472.02 80
4 11/06/2019 14:30:54 0.00, -75.21 0.06, -75.63 46.60 80
5 11/09/2019 02:29:16 0.00, -75.23 0.02, -75.22 2.07 80
6 11/11/2019 14:27:30 -0.00, -75.27 -0.10, -74.79 54.42 80
7 11/13/2019 02:49:11 0.01, -75.28 -0.89, -79.39 467.00 80
8 11/14/2019 02:25:52 0.01, -75.30 0.19, -74.38 103.61 80
9 11/15/2019 14:44:45 -0.01, -75.32 0.81, -78.95 413.73 80




NCC Satellite Simultaneous Nadir Overpasses (SNOs) Prediction Service
